• In Netherlands
  • List of Countries
  • For 7 days
  • Water Temperature
  • Satellite Maps
  • Weather Map
  • Weather Widgets
  • user-avatar
    Login

    Hourly Weather Sydney

    Today, 24 September, Monday

    Time Temperature Precipitation Wind Pressure Humidity
    00:00 +11°C° 0.3 mm 7 mps 770 mmHg 85%
    01:00 +11°C° 0.3 mm 7 mps 770 mmHg 84%
    02:00 +11°C° 0.1 mm 6 mps 770 mmHg 84%
    03:00 +10°C° 0.1 mm 6 mps 770 mmHg 84%
    04:00 +10°C° 0.1 mm 6 mps 770 mmHg 84%
    05:00 +10°C° 0 mm 6 mps 770 mmHg 83%
    06:00 +10°C° 0 mm 5 mps 771 mmHg 81%
    07:00 +10°C° 0 mm 5 mps 771 mmHg 80%
    08:00 +12°C° 0.1 mm 5 mps 771 mmHg 77%
    09:00 +12°C° 0.1 mm 5 mps 771 mmHg 75%
    10:00 +13°C° 0.1 mm 5 mps 772 mmHg 72%
    11:00 +13°C° 0.1 mm 5 mps 771 mmHg 68%
    12:00 +14°C° 0.1 mm 5 mps 771 mmHg 65%
    13:00 +15°C° 0.1 mm 5 mps 771 mmHg 61%
    14:00 +15°C° 0.1 mm 5 mps 771 mmHg 61%
    15:00 +14°C° 0.1 mm 5 mps 771 mmHg 60%
    16:00 +14°C° 0.1 mm 5 mps 770 mmHg 59%
    17:00 +13°C° 0 mm 5 mps 771 mmHg 63%
    18:00 +12°C° 0 mm 4 mps 771 mmHg 67%
    19:00 +12°C° 0 mm 4 mps 771 mmHg 71%
    20:00 +11°C° 0 mm 4 mps 771 mmHg 72%
    21:00 +11°C° 0 mm 3 mps 771 mmHg 73%
    22:00 +11°C° 0 mm 3 mps 772 mmHg 73%
    23:00 +10°C° 0 mm 3 mps 771 mmHg 75%

    Tomorrow, 25 September, Tuesday

    Time Temperature Precipitation Wind Pressure Humidity
    00:00 +10°C° 0 mm 2 mps 771 mmHg 77%
    01:00 +9°C° 0 mm 2 mps 771 mmHg 79%
    02:00 +9°C° 0 mm 2 mps 771 mmHg 79%
    03:00 +9°C° 0 mm 2 mps 770 mmHg 79%
    04:00 +9°C° 0 mm 2 mps 770 mmHg 79%
    05:00 +9°C° 0 mm 2 mps 770 mmHg 78%
    06:00 +9°C° 0 mm 2 mps 771 mmHg 77%
    07:00 +10°C° 0 mm 2 mps 771 mmHg 76%
    08:00 +13°C° 0 mm 2 mps 771 mmHg 65%
    09:00 +16°C° 0 mm 2 mps 770 mmHg 54%
    10:00 +18°C° 0 mm 2 mps 770 mmHg 43%
    11:00 +19°C° 0 mm 2 mps 770 mmHg 40%
    12:00 +19°C° 0 mm 2 mps 769 mmHg 38%
    13:00 +20°C° 0 mm 2 mps 768 mmHg 36%
    14:00 +19°C° 0 mm 3 mps 768 mmHg 38%
    15:00 +19°C° 0 mm 3 mps 767 mmHg 40%
    16:00 +18°C° 0 mm 3 mps 767 mmHg 43%
    17:00 +16°C° 0 mm 3 mps 767 mmHg 50%
    18:00 +13°C° 0 mm 3 mps 768 mmHg 58%
    19:00 +12°C° 0 mm 3 mps 768 mmHg 66%
    20:00 +12°C° 0 mm 2 mps 768 mmHg 70%
    21:00 +10°C° 0 mm 2 mps 769 mmHg 73%
    22:00 +11°C° 0 mm 1 mps 769 mmHg 76%
    23:00 +11°C° 0 mm 1 mps 769 mmHg 78%

    Day after tomorrow, 26 September, Wednesday

    Time Temperature Precipitation Wind Pressure Humidity
    00:00 +11°C° 0 mm 1 mps 769 mmHg 79%
    01:00 +10°C° 0 mm 1 mps 768 mmHg 81%
    02:00 +9°C° 0 mm 2 mps 768 mmHg 83%
    03:00 +9°C° 0 mm 2 mps 768 mmHg 86%
    04:00 +8°C° 0 mm 2 mps 768 mmHg 89%
    05:00 +9°C° 0.2 mm 3 mps 768 mmHg 86%
    06:00 +10°C° 0.2 mm 3 mps 768 mmHg 83%
    07:00 +11°C° 0.2 mm 3 mps 768 mmHg 81%
    08:00 +13°C° 0.1 mm 3 mps 768 mmHg 72%
    09:00 +16°C° 0.1 mm 2 mps 768 mmHg 64%
    10:00 +18°C° 0.1 mm 2 mps 768 mmHg 55%
    11:00 +18°C° 0.1 mm 3 mps 767 mmHg 53%
    12:00 +19°C° 0.1 mm 3 mps 767 mmHg 51%
    13:00 +19°C° 0.1 mm 3 mps 766 mmHg 48%
    14:00 +19°C° 0 mm 3 mps 766 mmHg 50%
    15:00 +18°C° 0 mm 3 mps 766 mmHg 51%
    16:00 +18°C° 0 mm 3 mps 766 mmHg 52%
    17:00 +17°C° 0 mm 3 mps 766 mmHg 59%
    18:00 +14°C° 0 mm 3 mps 766 mmHg 66%
    19:00 +13°C° 0 mm 3 mps 767 mmHg 73%
    20:00 +12°C° 0 mm 3 mps 767 mmHg 77%
    21:00 +11°C° 0 mm 3 mps 767 mmHg 80%
    22:00 +12°C° 0 mm 2 mps 768 mmHg 83%
    23:00 +10°C° 0 mm 3 mps 767 mmHg 86%

    27 September, Thursday

    Time Temperature Precipitation Wind Pressure Humidity
    00:00 +10°C° 0 mm 3 mps 767 mmHg 88%
    01:00 +9°C° 0 mm 3 mps 766 mmHg 90%
    02:00 +9°C° 0 mm 3 mps 766 mmHg 91%
    03:00 +9°C° 0 mm 3 mps 765 mmHg 92%
    04:00 +8°C° 0 mm 3 mps 765 mmHg 93%
    05:00 +9°C° 0 mm 3 mps 765 mmHg 89%
    06:00 +10°C° 0 mm 4 mps 765 mmHg 85%
    07:00 +11°C° 0 mm 4 mps 765 mmHg 81%
    08:00 +14°C° 0 mm 4 mps 765 mmHg 68%
    09:00 +18°C° 0 mm 4 mps 764 mmHg 54%
    10:00 +22°C° 0 mm 4 mps 764 mmHg 40%
    11:00 +23°C° 0 mm 4 mps 763 mmHg 36%
    12:00 +26°C° 0 mm 5 mps 763 mmHg 32%
    13:00 +28°C° 0 mm 5 mps 762 mmHg 28%
    14:00 +27°C° 0 mm 5 mps 761 mmHg 31%
    15:00 +26°C° 0 mm 5 mps 761 mmHg 35%
    16:00 +24°C° 0 mm 6 mps 760 mmHg 39%
    17:00 +22°C° 0 mm 6 mps 761 mmHg 45%
    18:00 +21°C° 0 mm 6 mps 761 mmHg 51%
    19:00 +19°C° 0 mm 6 mps 761 mmHg 56%
    20:00 +17°C° 0.1 mm 5 mps 761 mmHg 59%
    21:00 +17°C° 0.1 mm 5 mps 761 mmHg 62%
    22:00 +16°C° 0.1 mm 5 mps 761 mmHg 65%
    23:00 +16°C° 0 mm 5 mps 761 mmHg 66%

    28 September, Friday

    Time Temperature Precipitation Wind Pressure Humidity
    00:00 +15°C° 0 mm 5 mps 760 mmHg 67%
    01:00 +15°C° 0 mm 5 mps 760 mmHg 68%
    02:00 +15°C° 0 mm 4 mps 760 mmHg 68%
    03:00 +15°C° 0 mm 4 mps 760 mmHg 68%
    04:00 +17°C° 0 mm 4 mps 760 mmHg 68%
    05:00 +17°C° 0 mm 4 mps 760 mmHg 66%
    06:00 +18°C° 0 mm 4 mps 761 mmHg 64%
    07:00 +19°C° 0 mm 5 mps 761 mmHg 62%
    08:00 +21°C° 0 mm 5 mps 761 mmHg 54%
    09:00 +25°C° 0 mm 5 mps 761 mmHg 46%
    10:00 +27°C° 0 mm 5 mps 760 mmHg 37%
    11:00 +29°C° 0 mm 5 mps 760 mmHg 32%
    12:00 +30°C° 0 mm 5 mps 759 mmHg 27%
    13:00 +33°C° 0 mm 5 mps 758 mmHg 21%
    14:00 +32°C° 0 mm 6 mps 758 mmHg 24%
    15:00 +30°C° 0 mm 6 mps 757 mmHg 27%
    16:00 +29°C° 0 mm 6 mps 757 mmHg 29%
    17:00 +27°C° 0.4 mm 6 mps 757 mmHg 43%
    18:00 +23°C° 0.4 mm 6 mps 757 mmHg 57%
    19:00 +20°C° 0.4 mm 6 mps 757 mmHg 71%
    20:00 +19°C° 1 mm 5 mps 757 mmHg 76%
    21:00 +18°C° 1 mm 4 mps 757 mmHg 82%
    22:00 +17°C° 1 mm 3 mps 757 mmHg 88%
    23:00 +17°C° 0.1 mm 3 mps 757 mmHg 89%

    29 September, Saturday

    Time Temperature Precipitation Wind Pressure Humidity
    00:00 +16°C° 0.1 mm 3 mps 757 mmHg 90%
    01:00 +15°C° 0.1 mm 4 mps 757 mmHg 92%
    02:00 +15°C° 0.1 mm 4 mps 757 mmHg 92%
    03:00 +15°C° 0.1 mm 5 mps 757 mmHg 93%
    04:00 +14°C° 0.1 mm 5 mps 758 mmHg 93%
    05:00 +14°C° 0.5 mm 5 mps 758 mmHg 93%
    06:00 +14°C° 0.5 mm 4 mps 759 mmHg 92%
    07:00 +14°C° 0.5 mm 3 mps 760 mmHg 92%
    08:00 +16°C° 0.9 mm 3 mps 760 mmHg 87%
    09:00 +17°C° 0.9 mm 2 mps 760 mmHg 81%
    10:00 +17°C° 0.9 mm 2 mps 760 mmHg 76%
    11:00 +19°C° 0.2 mm 2 mps 759 mmHg 66%
    12:00 +20°C° 0.2 mm 2 mps 759 mmHg 56%
    13:00 +21°C° 0.2 mm 3 mps 759 mmHg 45%
    14:00 +20°C° 0.3 mm 3 mps 759 mmHg 45%
    15:00 +19°C° 0.3 mm 3 mps 759 mmHg 45%
    16:00 +18°C° 0.3 mm 4 mps 759 mmHg 45%
    17:00 +16°C° 0.2 mm 5 mps 760 mmHg 53%
    18:00 +14°C° 0.2 mm 6 mps 761 mmHg 60%
    19:00 +12°C° 0.2 mm 7 mps 762 mmHg 67%
    20:00 +11°C° 0.4 mm 8 mps 762 mmHg 73%
    21:00 +10°C° 0.4 mm 8 mps 762 mmHg 78%
    22:00 +9°C° 0.4 mm 8 mps 763 mmHg 83%
    23:00 +9°C° 0.2 mm 8 mps 763 mmHg 82%
    Show more

    3.3.7123123